Time,TemperatureF,DewpointF,PressureIn,WindDirection,WindDirectionDegrees,WindSpeedMPH,WindSpeedGustMPH,Humidity,HourlyPrecipIn,Conditions,Clouds,dailyrainin,SoftwareType,DateUTC
2013-10-09 04:23:00,73.2,70.7,29.69,East,90,0.0,-999.0,92,-99.99,,,0.00,Acu-Link.com,2013-10-09 08:23:00,
2013-10-09 04:40:00,73.4,70.6,29.69,ESE,112,2.2,-999.0,91,-99.99,,,0.00,Acu-Link.com,2013-10-09 08:40:00,
2013-10-09 04:56:00,73.8,71.0,29.69,NNW,337,1.7,-999.0,91,-99.99,,,0.00,Acu-Link.com,2013-10-09 08:56:00,
2013-10-09 05:11:00,73.2,70.7,29.69,NNW,337,1.7,-999.0,92,-99.99,,,0.00,Acu-Link.com,2013-10-09 09:11:00,
2013-10-09 05:26:00,73.0,70.2,29.69,SSE,157,1.7,-999.0,91,-99.99,,,0.00,Acu-Link.com,2013-10-09 09:26:00,
2013-10-09 05:41:00,73.0,70.2,29.69,WSW,247,1.1,-999.0,91,-99.99,,,0.00,Acu-Link.com,2013-10-09 09:41:00,
2013-10-09 05:56:00,73.2,70.4,29.70,ENE,67,2.2,-999.0,91,-99.99,,,0.00,Acu-Link.com,2013-10-09 09:56:00,
2013-10-09 06:11:00,72.9,70.1,29.73,East,90,1.7,-999.0,91,-99.99,,,0.00,Acu-Link.com,2013-10-09 10:11:00,
2013-10-09 06:27:00,72.9,70.1,29.73,SSE,157,2.7,-999.0,91,-99.99,,,0.00,Acu-Link.com,2013-10-09 10:27:00,
2013-10-09 06:42:00,72.7,69.9,29.73,NE,45,1.1,-999.0,91,-99.99,,,0.00,Acu-Link.com,2013-10-09 10:42:00,
2013-10-09 06:58:00,72.5,69.7,29.72,WSW,247,0.0,-999.0,91,-99.99,,,0.00,Acu-Link.com,2013-10-09 10:58:00,
2013-10-09 07:13:00,72.1,69.6,29.73,NW,315,1.1,-999.0,92,-99.99,,,0.00,Acu-Link.com,2013-10-09 11:13:00,
2013-10-09 07:28:00,72.1,69.6,29.73,NW,315,0.0,-999.0,92,-99.99,,,0.00,Acu-Link.com,2013-10-09 11:28:00,
2013-10-09 07:43:00,72.1,69.6,29.74,ENE,67,1.7,-999.0,92,-99.99,,,0.00,Acu-Link.com,2013-10-09 11:43:00,
2013-10-09 07:58:00,72.7,69.9,29.74,West,270,2.7,-999.0,91,-99.99,,,0.00,Acu-Link.com,2013-10-09 11:58:00,
2013-10-09 08:14:00,73.2,70.1,29.75,South,180,1.1,-999.0,90,-99.99,,,0.00,Acu-Link.com,2013-10-09 12:14:00,
2013-10-09 08:29:00,72.7,69.9,29.75,North,0,1.1,-999.0,91,-99.99,,,0.00,Acu-Link.com,2013-10-09 12:29:00,
2013-10-09 08:44:00,72.5,69.7,29.76,SSE,157,1.1,-999.0,91,-99.99,,,0.00,Acu-Link.com,2013-10-09 12:44:00,
2013-10-09 08:59:00,73.0,69.9,29.77,SE,135,1.1,-999.0,90,-99.99,,,0.00,Acu-Link.com,2013-10-09 12:59:00,
2013-10-09 09:15:00,73.0,69.9,29.77,SE,135,1.7,-999.0,90,-99.99,,,0.00,Acu-Link.com,2013-10-09 13:15:00,
2013-10-09 09:31:00,72.9,69.8,29.78,ESE,112,1.1,-999.0,90,-99.99,,,0.00,Acu-Link.com,2013-10-09 13:31:00,
2013-10-09 09:46:00,73.8,70.3,29.78,WNW,292,3.2,-999.0,89,-99.99,,,0.00,Acu-Link.com,2013-10-09 13:46:00,
2013-10-09 10:01:00,74.1,70.6,29.79,SW,225,2.2,-999.0,89,-99.99,,,0.00,Acu-Link.com,2013-10-09 14:01:00,
2013-10-09 10:16:00,74.3,70.5,29.79,NE,45,1.7,-999.0,88,-99.99,,,0.00,Acu-Link.com,2013-10-09 14:16:00,
2013-10-09 10:31:00,75.6,71.4,29.80,WSW,247,1.7,-999.0,87,-99.99,,,0.00,Acu-Link.com,2013-10-09 14:31:00,
2013-10-09 10:47:00,75.6,71.1,29.80,North,0,1.1,-999.0,86,-99.99,,,0.00,Acu-Link.com,2013-10-09 14:47:00,
2013-10-09 11:02:00,75.7,71.2,29.80,SSW,202,2.2,-999.0,86,-99.99,,,0.00,Acu-Link.com,2013-10-09 15:02:00,
2013-10-09 11:17:00,76.6,71.7,29.80,West,270,2.7,-999.0,85,-99.99,,,0.00,Acu-Link.com,2013-10-09 15:17:00,
2013-10-09 11:32:00,78.4,72.1,29.80,East,90,1.7,-999.0,81,-99.99,,,0.00,Acu-Link.com,2013-10-09 15:32:00,
2013-10-09 11:47:00,79.2,72.5,29.80,North,0,2.2,-999.0,80,-99.99,,,0.00,Acu-Link.com,2013-10-09 15:47:00,
2013-10-09 12:03:00,79.3,72.6,29.79,SE,135,1.7,-999.0,80,-99.99,,,0.00,Acu-Link.com,2013-10-09 16:03:00,
2013-10-09 12:18:00,82.6,74.2,29.79,SSW,202,1.7,-999.0,76,-99.99,,,0.00,Acu-Link.com,2013-10-09 16:18:00,
2013-10-09 12:33:00,84.2,75.4,29.79,NNE,22,1.1,-999.0,75,-99.99,,,0.00,Acu-Link.com,2013-10-09 16:33:00,
2013-10-09 12:54:00,82.0,74.1,29.78,North,0,4.2,-999.0,77,-99.99,,,0.00,Acu-Link.com,2013-10-09 16:54:00,
2013-10-09 13:09:00,82.8,74.4,29.77,ENE,67,0.0,-999.0,76,-99.99,,,0.00,Acu-Link.com,2013-10-09 17:09:00,
2013-10-09 13:24:00,82.9,74.1,29.76,SSE,157,2.2,-999.0,75,-99.99,,,0.00,Acu-Link.com,2013-10-09 17:24:00,
2013-10-09 13:39:00,82.6,74.2,29.77,SW,225,1.1,-999.0,76,-99.99,,,0.00,Acu-Link.com,2013-10-09 17:39:00,
2013-10-09 13:54:00,82.6,74.2,29.75,West,270,2.7,-999.0,76,-99.99,,,0.00,Acu-Link.com,2013-10-09 17:54:00,
2013-10-09 14:10:00,83.1,74.7,29.74,NNW,337,1.7,-999.0,76,-99.99,,,0.00,Acu-Link.com,2013-10-09 18:10:00,
2013-10-09 14:25:00,85.5,76.2,29.73,ESE,112,2.7,-999.0,74,-99.99,,,0.00,Acu-Link.com,2013-10-09 18:25:00,
2013-10-09 14:41:00,84.9,75.7,29.73,West,270,1.1,-999.0,74,-99.99,,,0.00,Acu-Link.com,2013-10-09 18:41:00,
2013-10-09 14:56:00,82.9,74.1,29.73,ESE,112,2.2,-999.0,75,-99.99,,,0.00,Acu-Link.com,2013-10-09 18:56:00,
2013-10-09 15:11:00,84.2,75.0,29.73,NE,45,2.7,-999.0,74,-99.99,,,0.00,Acu-Link.com,2013-10-09 19:11:00,
2013-10-09 15:26:00,82.0,73.7,29.73,SSE,157,2.2,-999.0,76,-99.99,,,0.00,Acu-Link.com,2013-10-09 19:26:00,
2013-10-09 15:42:00,84.9,75.3,29.73,SW,225,1.7,-999.0,73,-99.99,,,0.00,Acu-Link.com,2013-10-09 19:42:00,
2013-10-09 15:57:00,83.5,74.7,29.72,SSE,157,2.2,-999.0,75,-99.99,,,0.00,Acu-Link.com,2013-10-09 19:57:00,
2013-10-09 16:12:00,81.7,73.0,29.72,SSE,157,0.0,-999.0,75,-99.99,,,0.00,Acu-Link.com,2013-10-09 20:12:00,
2013-10-09 16:27:00,84.0,74.4,29.72,WNW,292,2.2,-999.0,73,-99.99,,,0.00,Acu-Link.com,2013-10-09 20:27:00,
2013-10-09 16:42:00,83.3,73.7,29.71,SE,135,3.2,-999.0,73,-99.99,,,0.00,Acu-Link.com,2013-10-09 20:42:00,
2013-10-09 16:58:00,82.0,73.3,29.72,SW,225,1.1,-999.0,75,-99.99,,,0.00,Acu-Link.com,2013-10-09 20:58:00,
2013-10-09 17:13:00,81.9,72.8,29.73,West,270,0.0,-999.0,74,-99.99,,,0.00,Acu-Link.com,2013-10-09 21:13:00,
2013-10-09 17:28:00,82.6,73.0,29.72,ESE,112,2.2,-999.0,73,-99.99,,,0.00,Acu-Link.com,2013-10-09 21:28:00,
2013-10-09 17:44:00,83.5,73.5,29.72,NNE,22,1.7,-999.0,72,-99.99,,,0.00,Acu-Link.com,2013-10-09 21:44:00,
2013-10-09 17:59:00,81.5,72.4,29.73,West,270,1.7,-999.0,74,-99.99,,,0.00,Acu-Link.com,2013-10-09 21:59:00,
2013-10-09 18:14:00,82.2,72.7,29.72,South,180,1.7,-999.0,73,-99.99,,,0.00,Acu-Link.com,2013-10-09 22:14:00,
2013-10-09 18:29:00,79.5,71.6,29.72,SSW,202,1.7,-999.0,77,-99.99,,,0.00,Acu-Link.com,2013-10-09 22:29:00,
2013-10-09 18:45:00,77.0,70.0,29.73,WNW,292,1.7,-999.0,79,-99.99,,,0.00,Acu-Link.com,2013-10-09 22:45:00,
2013-10-09 19:00:00,76.5,69.5,29.73,NNW,337,2.2,-999.0,79,-99.99,,,0.00,Acu-Link.com,2013-10-09 23:00:00,
2013-10-09 19:15:00,74.8,68.2,29.73,NNE,22,2.2,-999.0,80,-99.99,,,0.00,Acu-Link.com,2013-10-09 23:15:00,
2013-10-09 19:30:00,74.1,67.9,29.75,SSE,157,2.2,-999.0,81,-99.99,,,0.00,Acu-Link.com,2013-10-09 23:30:00,
2013-10-09 19:46:00,73.4,67.6,29.75,ENE,67,2.7,-999.0,82,-99.99,,,0.00,Acu-Link.com,2013-10-09 23:46:00,
2013-10-09 20:01:00,72.9,67.1,29.75,SW,225,2.2,-999.0,82,-99.99,,,0.00,Acu-Link.com,2013-10-10 00:01:00,
2013-10-09 20:17:00,72.1,66.6,29.75,NNW,337,3.2,-999.0,83,-99.99,,,0.00,Acu-Link.com,2013-10-10 00:17:00,
2013-10-09 20:32:00,72.0,66.5,29.76,ESE,112,1.1,-999.0,83,-99.99,,,0.00,Acu-Link.com,2013-10-10 00:32:00,
2013-10-09 20:48:00,71.2,66.1,29.75,South,180,2.7,-999.0,84,-99.99,,,0.00,Acu-Link.com,2013-10-10 00:48:00,
2013-10-09 21:03:00,71.4,66.3,29.76,ESE,112,1.1,-999.0,84,-99.99,,,0.00,Acu-Link.com,2013-10-10 01:03:00,
2013-10-09 21:18:00,70.9,66.2,29.76,WSW,247,0.0,-999.0,85,-99.99,,,0.00,Acu-Link.com,2013-10-10 01:18:00,
2013-10-09 21:33:00,71.1,66.4,29.77,East,90,1.7,-999.0,85,-99.99,,,0.00,Acu-Link.com,2013-10-10 01:33:00,
2013-10-09 21:49:00,70.5,65.8,29.77,WNW,292,1.1,-999.0,85,-99.99,,,0.00,Acu-Link.com,2013-10-10 01:49:00,
2013-10-09 22:04:00,70.0,65.3,29.78,North,0,1.1,-999.0,85,-99.99,,,0.00,Acu-Link.com,2013-10-10 02:04:00,
2013-10-09 22:19:00,69.8,65.1,29.78,West,270,1.1,-999.0,85,-99.99,,,0.00,Acu-Link.com,2013-10-10 02:19:00,
2013-10-09 22:34:00,70.0,65.3,29.78,SSE,157,0.0,-999.0,85,-99.99,,,0.00,Acu-Link.com,2013-10-10 02:34:00,
2013-10-09 22:50:00,69.8,65.7,29.78,West,270,1.1,-999.0,87,-99.99,,,0.00,Acu-Link.com,2013-10-10 02:50:00,
2013-10-09 23:05:00,68.9,65.2,29.78,ESE,112,0.0,-999.0,88,-99.99,,,0.00,Acu-Link.com,2013-10-10 03:05:00,
2013-10-09 23:20:00,68.7,65.0,29.79,NNW,337,1.1,-999.0,88,-99.99,,,0.00,Acu-Link.com,2013-10-10 03:20:00,
2013-10-09 23:36:00,68.7,65.0,29.79,North,0,0.0,-999.0,88,-99.99,,,0.00,Acu-Link.com,2013-10-10 03:36:00,
2013-10-09 23:51:00,69.4,65.4,29.78,North,0,1.1,-999.0,87,-99.99,,,0.00,Acu-Link.com,2013-10-10 03:51:00,